User: anonymous   Login
Location: Ostrava
(49.8330°N, 18.2830°E)
Time: 17:37:27
(UTC+02:00)
Language:

Cosmos 1766 - Orbit

View from above orbital plane
View from above orbital plane
View from above satellite
View from above satellite

Ground track
Ground track

The orbit data is extracted from the following two-line orbital elements,

1 16881U 86055A   16269.09097830  .00000460  00000-0  26622-4 0  9990
2 16881  82.5059 282.9432 0014555 299.8608  60.1174 15.09721196641435
Epoch (UTC): 25 September 2016 02:11:00
Eccentricity: 0.0014555
inclination: 82.5059°
perigee height: 527 km
apogee height: 547 km
right ascension of ascending node: 282.9432°
argument of perigee: 299.8608°
revolutions per day: 15.09721196
mean anomaly at epoch: 60.1174°
orbit number at epoch: 64143

The dashed part of the orbit path shows where the satellite is in the earth's shadow,  

DLR